TimeMST,TemperatureF,Dew PointF,Humidity,Sea Level PressureIn,VisibilityMPH,Wind Direction,Wind SpeedMPH,Gust SpeedMPH,PrecipitationIn,Events,Conditions,WindDirDegrees,DateUTC
12:55 AM,46.9,39.9,77,29.97,10.0,WNW,12.7,-,0.01,Rain,Light Rain,300,2013-11-14 07:55:00
1:55 AM,48.0,37.9,68,29.97,10.0,WNW,9.2,21.9,0.00,Rain,Light Rain,290,2013-11-14 08:55:00
2:55 AM,46.0,37.9,73,29.97,10.0,WNW,9.2,-,0.00,,Overcast,300,2013-11-14 09:55:00
3:55 AM,45.0,36.0,71,29.98,10.0,WNW,6.9,-,N/A,,Partly Cloudy,300,2013-11-14 10:55:00
4:55 AM,39.0,34.0,82,30.00,10.0,West,8.1,-,N/A,,Clear,270,2013-11-14 11:55:00
5:55 AM,39.0,33.1,79,30.00,10.0,West,9.2,-,N/A,,Clear,280,2013-11-14 12:55:00
6:55 AM,39.9,32.0,73,30.00,10.0,WNW,12.7,-,N/A,,Clear,300,2013-11-14 13:55:00
7:55 AM,42.1,32.0,67,30.00,10.0,WNW,9.2,-,N/A,,Clear,290,2013-11-14 14:55:00
8:55 AM,48.0,33.1,56,29.99,10.0,WNW,15.0,19.6,N/A,,Clear,300,2013-11-14 15:55:00
9:55 AM,53.1,30.9,43,29.97,10.0,NW,12.7,23.0,N/A,,Clear,320,2013-11-14 16:55:00
10:55 AM,55.0,30.0,38,29.93,10.0,West,16.1,-,N/A,,Clear,280,2013-11-14 17:55:00
11:55 AM,55.9,30.0,37,29.90,10.0,WNW,11.5,19.6,N/A,,Clear,290,2013-11-14 18:55:00
12:55 PM,57.0,28.0,33,29.87,10.0,WNW,16.1,23.0,N/A,,Clear,300,2013-11-14 19:55:00
1:55 PM,55.9,28.0,34,29.86,10.0,WNW,11.5,-,N/A,,Clear,290,2013-11-14 20:55:00
2:55 PM,55.0,28.0,35,29.85,10.0,NW,12.7,-,N/A,,Clear,320,2013-11-14 21:55:00
3:55 PM,48.9,28.9,46,29.86,10.0,NW,5.8,-,N/A,,Clear,320,2013-11-14 22:55:00
4:55 PM,42.1,28.0,58,29.87,10.0,NW,6.9,-,N/A,,Clear,320,2013-11-14 23:55:00
5:55 PM,37.9,28.0,68,29.88,10.0,Calm,Calm,-,N/A,,Clear,0,2013-11-15 00:55:00
6:55 PM,36.0,28.0,73,29.88,10.0,WNW,5.8,-,N/A,,Clear,300,2013-11-15 01:55:00
7:55 PM,30.9,26.1,82,29.88,10.0,West,4.6,-,N/A,,Clear,270,2013-11-15 02:55:00
8:55 PM,28.9,25.0,85,29.87,10.0,Calm,Calm,-,N/A,,Clear,0,2013-11-15 03:55:00
9:55 PM,30.0,25.0,82,29.84,10.0,Calm,Calm,-,N/A,,Clear,0,2013-11-15 04:55:00
10:55 PM,27.0,24.1,89,29.84,10.0,West,3.5,-,N/A,,Clear,270,2013-11-15 05:55:00
11:55 PM,26.1,23.0,88,29.82,10.0,Calm,Calm,-,N/A,,Clear,0,2013-11-15 06:55:00